Weather History for KRWL - October, 2013

Change the Weather History Date:

Thursday, October 17, 2013

  Actual Average Record
Temperature  
Mean Temperature 35 °F 43 °F  
Max Temperature 44 °F 56 °F 72 °F (2003)
Min Temperature 26 °F 30 °F 12 °F (1999)
Degree Days  
Heating Degree Days 30 22  
Month to date heating degree days 418 324  
Since 1 July heating degree days 633 710  
Cooling Degree Days 0 0  
Month to date cooling degree days 0 0  
Year to date cooling degree days 371 186  
Moisture  
Dew Point 27 °F    
Average Humidity 73    
Maximum Humidity 100    
Minimum Humidity 45    
Precipitation  
Precipitation 0.03 in 0.02 in 0.40 in (1971)
Month to date precipitation 1.17 0.45  
Year to date precipitation 7.41 7.97  
Sea Level Pressure  
Sea Level Pressure 30.07 in    
Wind  
Wind Speed 9 mph (NNW)    
Max Wind Speed 24 mph    
Max Gust Speed 29 mph    
Visibility 6 miles    
Events Snow    
T = Trace of Precipitation, MM = Missing Value Source: NWS Daily Summary

Daily Weather History Graph

Daily Weather History Graph

Search for Another Location

Airport or City:

Trip Planner

Search our weather history database for the weather conditions in past years. The results will help you decide how hot, cold, wet, or windy it might be!

Date:

Astronomy

Oct. 17, 2013 Rise Set
Actual Time 7:23 AM MDT 6:23 PM MDT
Civil Twilight 6:55 AM MDT 6:51 PM MDT
Nautical Twilight 6:23 AM MDT 7:24 PM MDT
Astronomical Twilight 5:50 AM MDT 7:56 PM MDT
Moon 5:40 PM MDT (10/17) 5:58 AM MDT (10/17)
Length of Visible Light 11h 56m
Length of Day
11h 00m
Waxing Gibbous, 98% of the Moon is Illuminated
Oct 17
Waxing Gibbous
Oct 18
Full
Oct 26
Last Quarter
Nov 3
New
Nov 9
First Quarter

Hourly Weather History & Observations

Time (MDT) Temp. Windchill Dew Point Humidity Pressure Visibility Wind Dir Wind Speed Gust Speed Precip Events Conditions
12:53 AM 35.1 °F 23.8 °F 23.0 °F 61% 30.05 in 10.0 mi WSW 20.7 mph - N/A   Clear
1:53 AM 34.0 °F 22.7 °F 24.1 °F 67% 30.06 in 10.0 mi WSW 19.6 mph 26.5 mph N/A   Clear
2:53 AM 32.0 °F 21.6 °F 24.1 °F 73% 30.06 in 10.0 mi WSW 15.0 mph - N/A   Clear
3:53 AM 32.0 °F 22.5 °F 24.1 °F 73% 30.05 in 10.0 mi WSW 12.7 mph - N/A   Clear
4:53 AM 32.0 °F 22.1 °F 24.1 °F 73% 30.06 in 10.0 mi WSW 13.8 mph - N/A   Mostly Cloudy
5:53 AM 30.9 °F - 24.1 °F 76% 30.07 in 10.0 mi Calm Calm - N/A   Mostly Cloudy
6:53 AM 33.1 °F - 21.9 °F 64% 30.08 in 10.0 mi Calm Calm - N/A   Mostly Cloudy
7:53 AM 33.1 °F - 21.9 °F 64% 30.09 in 10.0 mi Calm Calm - N/A   Clear
8:53 AM 34.0 °F 28.0 °F 21.9 °F 61% 30.11 in 10.0 mi NE 6.9 mph - N/A   Clear
9:53 AM 36.0 °F - 23.0 °F 59% 30.10 in 10.0 mi Calm Calm - N/A   Overcast
10:53 AM 37.0 °F 29.3 °F 21.9 °F 54% 30.08 in 10.0 mi West 11.5 mph - N/A   Overcast
11:53 AM 39.9 °F 33.4 °F 23.0 °F 51% 30.06 in 10.0 mi WSW 10.4 mph - N/A   Overcast
12:53 PM 42.1 °F 35.2 °F 23.0 °F 47% 30.03 in 10.0 mi WSW 12.7 mph 19.6 mph N/A   Overcast
1:53 PM 43.0 °F 36.8 °F 23.0 °F 45% 29.99 in 10.0 mi WSW 11.5 mph 19.6 mph N/A   Overcast
2:53 PM 41.0 °F 36.4 °F 25.0 °F 53% 30.00 in 10.0 mi NW 6.9 mph - N/A   Overcast
3:53 PM 42.1 °F 36.6 °F 25.0 °F 51% 29.98 in 10.0 mi NNW 9.2 mph - N/A   Overcast
4:53 PM 37.9 °F 31.5 °F 30.9 °F 76% 30.01 in 10.0 mi North 9.2 mph - N/A   Overcast
5:07 PM 37.4 °F 32.8 °F 30.2 °F 75% 30.02 in 9.0 mi North 5.8 mph - 0.00 in   Overcast
5:43 PM 35.6 °F 28.6 °F 30.2 °F 81% 30.03 in 2.0 mi North 9.2 mph - 0.00 in Snow Light Snow
5:50 PM 33.8 °F 25.8 °F 30.2 °F 87% 30.03 in 1.2 mi North 10.4 mph - 0.00 in Snow Light Snow
5:53 PM 34.0 °F 26.6 °F 32.0 °F 92% 30.04 in 1.8 mi North 9.2 mph - 0.00 in Snow Light Snow
5:56 PM 33.8 °F 24.3 °F 32.0 °F 93% 30.03 in 3.0 mi North 13.8 mph - 0.00 in Snow Light Snow
6:05 PM 33.8 °F 23.9 °F 30.2 °F 87% 30.03 in 8.0 mi North 15.0 mph - 0.00 in   Overcast
6:17 PM 33.8 °F 23.9 °F 30.2 °F 87% 30.03 in 10.0 mi North 15.0 mph - 0.00 in   Overcast
6:50 PM 32.0 °F 22.5 °F 30.2 °F 93% 30.04 in 8.0 mi North 12.7 mph - 0.00 in   Overcast
6:53 PM 32.0 °F 22.5 °F 30.9 °F 96% 30.05 in 9.0 mi North 12.7 mph - 0.00 in   Overcast
7:34 PM 32.0 °F 24.2 °F 30.2 °F 93% 30.05 in 2.0 mi North 9.2 mph - 0.00 in Snow Light Snow
7:42 PM 32.0 °F 24.8 °F 30.2 °F 93% 30.06 in 1.8 mi NNW 8.1 mph - 0.00 in Snow Light Snow
7:53 PM 32.0 °F 23.0 °F 30.0 °F 92% 30.07 in 2.5 mi North 11.5 mph - 0.00 in Snow Light Snow
8:09 PM 32.0 °F 23.6 °F 30.2 °F 93% 30.06 in 3.0 mi North 10.4 mph - 0.00 in Snow Light Snow
8:18 PM 32.0 °F 23.0 °F 30.2 °F 93% 30.07 in 1.8 mi North 11.5 mph - 0.00 in Snow Light Snow
8:29 PM 30.2 °F 21.3 °F 30.2 °F 100% 30.07 in 0.8 mi North 10.4 mph - 0.01 in Snow Light Snow
8:45 PM 30.2 °F 21.3 °F 30.2 °F 100% 30.07 in 1.5 mi North 10.4 mph - 0.02 in Snow Light Snow
8:53 PM 30.9 °F 22.2 °F 30.0 °F 96% 30.09 in 2.5 mi North 10.4 mph - 0.02 in Snow Light Snow
9:01 PM 30.2 °F 23.4 °F 30.2 °F 100% 30.09 in 1.8 mi North 6.9 mph - 0.00 in Snow Light Snow
9:44 PM 30.2 °F 21.3 °F 28.4 °F 93% 30.09 in 2.0 mi North 10.4 mph - 0.01 in Snow Light Snow
9:53 PM 30.0 °F 21.7 °F 28.9 °F 96% 30.11 in 2.0 mi North 9.2 mph - 0.01 in Snow Light Snow
10:00 PM 30.2 °F 22.6 °F 28.4 °F 93% 30.10 in 1.8 mi North 8.1 mph - 0.00 in Snow Light Snow
10:09 PM 30.2 °F 22.6 °F 28.4 °F 93% 30.10 in 2.5 mi NNE 8.1 mph - 0.00 in Snow Light Snow
10:16 PM 30.2 °F 23.4 °F 28.4 °F 93% 30.10 in 4.0 mi North 6.9 mph - 0.00 in Snow Light Snow
10:44 PM 28.4 °F 21.2 °F 26.6 °F 93% 30.11 in 4.0 mi North 6.9 mph - 0.00 in   Overcast
10:47 PM 28.4 °F 22.2 °F 26.6 °F 93% 30.11 in 2.5 mi North 5.8 mph - 0.00 in   Overcast
10:53 PM 28.0 °F 21.7 °F 27.0 °F 96% 30.12 in 2.5 mi North 5.8 mph - 0.00 in   Overcast
10:57 PM 28.4 °F 22.2 °F 26.6 °F 93% 30.11 in 9.0 mi NNW 5.8 mph - N/A   Overcast
11:03 PM 26.6 °F 20.0 °F 26.6 °F 100% 30.11 in 8.0 mi NNW 5.8 mph - N/A   Overcast
11:12 PM 26.6 °F 20.0 °F 26.6 °F 100% 30.11 in 2.5 mi NNW 5.8 mph - N/A   Overcast
11:19 PM 26.6 °F 19.1 °F 24.8 °F 93% 30.11 in 9.0 mi NNW 6.9 mph - N/A   Overcast
11:53 PM 26.1 °F 19.4 °F 24.1 °F 92% 30.13 in 10.0 mi North 5.8 mph - N/A   Overcast